STARLINK-31666, 59572

Orbit data source: Space-Track

STARLINK-31666, 59572 is a payload satellite owned by SpaceX/Seattle (US) in LEO that was launched on Tue, 23 Apr 2024 UTC via an FALCON 9 launch vehicle from the Air Force Eastern Test Range (AFETR). Payload-class satellites include a variety of spacecraft equipped with specific instruments for various scientific and technological missions. These include communications satellites like Starlink; space stations such as the ISS; scientific satellites like the Hubble; Earth observation satellites from companies like Planet Labs, Umbra, and HawkEye 360; GPS; miniature CubeSats for education and research; and military/defense satellites.

Loading next visibility...
Identifier
59572, 2024-076J
Orbit
LEO
Country
Flag of USUS
Related business
Manufacturer
SpaceX/Seattle
Mission
Operational spacecraft
Bus & Motor
STARLINK V2M, Unknown motor
Mass
730 kg wet, ~700 kg dry
Launch date (UTC)
2024-04-23 (1 year ago)
Launch vehicle
FALCON 9
Launch site
Air Force Eastern Test Range (AFETR)
Object type
Payload
Rocket body
Debris
Shape & HBR
Unknown
Radar Cross Section
Large (>1 m²)

Expand to show TLE details & history
Last TLE update: 11 hours ago

TLE from 11 hours ago
0 STARLINK-31666
1 59572U 24076J   25259.04688728  .00000285  00000-0  19883-4 0  9991
2 59572  43.0005 268.3188 0000876 268.4843  91.5908 15.27580040 79879
Epoch: 2025-09-16T01:07Z
TLE epoch observation values (Epoch: 2025-09-16T01:07:31.06Z)
Latitude
-0.00006°
Longitude
-103.80349°
Altitude
482.841 km
Speed
7.626 km/s
True Right ascension
17h 53m 16s
True Declination
0° 00' 00"
Sunlit
Object was in daylight at epoch
Visualization orbit readout
Latitude
Unknown
Longitude
Unknown
Altitude
Unknown
Speed
Unknown
Apparent Right ascension
Unknown
Apparent Declination
Unknown
Sunlit
N/A
Visualization observer readout
Local Sidereal Time
04:37:25
Azimuth
Unknown
Elevation
Unknown
Doppler factor
Unknown
Orbital elements
Apogee altitude
485.595 km
Perigee altitude
484.393 km
Semi-major axis
6,863.131 km
Eccentricity
0.00009
Inclination
43.0005°
RAAN
268.3188°
Arg. of periapsis
268.4843°
True anomaly
91.60083°
Mean anomaly
91.5908°
Eccentric anomaly
91.59582°
Mean motion
3.81733 °/min
Orbital period
94.31 mins
BSTAR
0.000019883
Loading maneuver chart data...
Computing Atmospheric mass density...
Loading historical data...
Loading historical data...
Loading historical data...
Loading historical data...
Loading historical data...
Loading historical data...
Loading historical data...

Documentation

Showing up to 5 results
|